Weather History for KERI - October, 2014

Change the Weather History Date:

Monday, October 13, 2014

  Actual Average Record
Temperature  
Mean Temperature 65 °F 54 °F  
Max Temperature 73 °F 62 °F 83 °F (1983)
Min Temperature 56 °F 46 °F 33 °F (1957)
Degree Days  
Heating Degree Days 0 11  
Month to date heating degree days 119 125  
Since 1 July heating degree days 236 249  
Cooling Degree Days 0 0  
Month to date cooling degree days 2 7  
Year to date cooling degree days 598 636  
Growing Degree Days 10 (Base 50)    
Moisture  
Dew Point 55 °F    
Average Humidity 78    
Maximum Humidity 93    
Minimum Humidity 62    
Precipitation  
Precipitation 0.53 in 0.13 in 1.15 in (1999)
Month to date precipitation 2.29 1.86  
Year to date precipitation 32.79 32.30  
Snow  
Snow 0.00 in 0.00 in - ()
Month to date snowfall 0.0 0.0  
Since 1 July snowfall 0.0 0.0  
Since 1 September snowfall 0.0 0.0  
Snow Depth 0.00 in    
Sea Level Pressure  
Sea Level Pressure 30.03 in    
Wind  
Wind Speed 14 mph (SSE)    
Max Wind Speed 23 mph    
Max Gust Speed 35 mph    
Visibility 9 miles    
Events Rain    
T = Trace of Precipitation, MM = Missing Value Source: NWS Daily Summary

Daily Weather History Graph

Daily Weather History Graph

Search for Another Location

Airport or City:

Trip Planner

Search our weather history database for the weather conditions in past years. The results will help you decide how hot, cold, wet, or windy it might be!

Date:

Astronomy

Oct. 13, 2014 Rise Set
Actual Time 7:30 AM EDT 6:42 PM EDT
Civil Twilight 7:02 AM EDT 7:10 PM EDT
Nautical Twilight 6:30 AM EDT 7:42 PM EDT
Astronomical Twilight 5:58 AM EDT 8:15 PM EDT
Moon 10:48 PM EDT (10/13) 12:47 PM EDT (10/13)
Length of Visible Light 12h 07m
Length of Day
11h 11m
Waning Gibbous, 70% of the Moon is Illuminated
Oct 13
Waning Gibbous
Oct 15
Last Quarter
Oct 23
New
Oct 30
First Quarter
Nov 6
Full

Hourly Weather History & Observations

Time (EDT) Temp. Dew Point Humidity Pressure Visibility Wind Dir Wind Speed Gust Speed Precip Events Conditions
12:51 AM 57.9 °F 45.0 °F 62% 30.07 in 10.0 mi SSE 15.0 mph 27.6 mph N/A   Overcast
1:51 AM 57.9 °F 46.9 °F 67% 30.07 in 10.0 mi SSE 16.1 mph - N/A   Overcast
2:51 AM 57.9 °F 48.0 °F 70% 30.07 in 10.0 mi SSE 13.8 mph 25.3 mph N/A   Overcast
3:23 AM 57.2 °F 48.2 °F 72% 30.07 in 10.0 mi SSE 15.0 mph 23.0 mph N/A   Overcast
3:46 AM 57.2 °F 48.2 °F 72% 30.06 in 10.0 mi SSE 13.8 mph - N/A   Overcast
3:51 AM 57.9 °F 48.9 °F 72% 30.06 in 10.0 mi SSE 15.0 mph 21.9 mph N/A   Overcast
4:51 AM 59.0 °F 48.9 °F 69% 30.05 in 10.0 mi SSE 16.1 mph 26.5 mph N/A   Overcast
5:51 AM 57.9 °F 48.9 °F 72% 30.04 in 10.0 mi SSE 12.7 mph 27.6 mph N/A   Scattered Clouds
6:51 AM 59.0 °F 50.0 °F 72% 30.04 in 10.0 mi SSE 13.8 mph 26.5 mph 0.00 in Rain Light Rain
7:32 AM 57.2 °F 51.8 °F 82% 30.06 in 1.8 mi SSE 23.0 mph 27.6 mph 0.11 in Rain Heavy Rain
7:45 AM 57.2 °F 53.6 °F 88% 30.06 in 3.0 mi SSE 15.0 mph 23.0 mph 0.42 in Rain Rain
7:51 AM 55.9 °F 53.1 °F 90% 30.06 in 2.5 mi SSE 17.3 mph - 0.46 in Rain Heavy Rain
8:02 AM 57.2 °F 51.8 °F 82% 30.06 in 7.0 mi SSE 16.1 mph 23.0 mph 0.06 in Rain Light Rain
8:51 AM 57.9 °F 53.1 °F 84% 30.06 in 10.0 mi SSE 16.1 mph 25.3 mph 0.07 in   Overcast
9:51 AM 60.1 °F 53.1 °F 78% 30.06 in 10.0 mi SSE 13.8 mph 23.0 mph 0.00 in   Overcast
10:51 AM 63.0 °F 54.0 °F 72% 30.06 in 10.0 mi South 12.7 mph 23.0 mph N/A   Overcast
11:51 AM 66.9 °F 55.9 °F 68% 30.05 in 10.0 mi South 13.8 mph - 0.00 in   Overcast
12:51 PM 70.0 °F 57.9 °F 65% 30.03 in 10.0 mi South 18.4 mph 24.2 mph N/A   Overcast
1:51 PM 69.8 °F 57.2 °F 64% 30.03 in 10.0 mi South 10.4 mph 23.0 mph N/A   Mostly Cloudy
2:51 PM 71.1 °F 59.0 °F 66% 30.02 in 10.0 mi South 11.5 mph 20.7 mph N/A   Scattered Clouds
3:44 PM 71.6 °F 60.8 °F 69% 30.02 in 10.0 mi South 9.2 mph - N/A   Mostly Cloudy
3:51 PM 72.0 °F 60.1 °F 66% 30.01 in 10.0 mi South 10.4 mph - 0.00 in Rain Light Rain
4:00 PM 71.6 °F 60.8 °F 69% 30.01 in 10.0 mi South 6.9 mph - 0.00 in   Overcast
4:51 PM 71.1 °F 60.1 °F 68% 30.01 in 10.0 mi South 9.2 mph - 0.00 in   Overcast
5:51 PM 70.0 °F 60.1 °F 71% 29.99 in 10.0 mi SSE 9.2 mph - N/A   Clear
6:51 PM 70.0 °F 60.1 °F 71% 29.99 in 10.0 mi South 10.4 mph - N/A   Clear
7:51 PM 69.1 °F 60.1 °F 73% 29.99 in 10.0 mi SSE 13.8 mph 23.0 mph N/A   Overcast
8:51 PM 70.0 °F 60.1 °F 71% 29.98 in 10.0 mi South 16.1 mph 23.0 mph N/A   Scattered Clouds
9:51 PM 69.1 °F 60.1 °F 73% 29.98 in 10.0 mi SSE 13.8 mph 21.9 mph N/A   Scattered Clouds
10:51 PM 68.0 °F 59.0 °F 73% 29.97 in 10.0 mi SSE 12.7 mph 23.0 mph N/A   Scattered Clouds
11:51 PM 66.9 °F 57.9 °F 73% 29.95 in 10.0 mi SSE 15.0 mph 23.0 mph N/A   Clear